TimeCST,TemperatureF,Dew PointF,Humidity,Sea Level PressureIn,VisibilityMPH,Wind Direction,Wind SpeedMPH,Gust SpeedMPH,PrecipitationIn,Events,Conditions,WindDirDegrees,DateUTC
12:15 AM,46.4,37.4,71,30.21,10.0,South,9.2,-,N/A,,Clear,180,2013-01-19 06:15:00
12:35 AM,46.4,37.4,71,30.21,10.0,South,9.2,-,N/A,,Clear,180,2013-01-19 06:35:00
12:55 AM,48.2,37.4,66,30.20,10.0,South,11.5,-,N/A,,Clear,180,2013-01-19 06:55:00
1:15 AM,48.2,37.4,66,30.19,10.0,South,11.5,17.3,N/A,,Clear,190,2013-01-19 07:15:00
1:35 AM,48.2,37.4,66,30.19,10.0,South,11.5,-,N/A,,Clear,190,2013-01-19 07:35:00
1:55 AM,48.2,37.4,66,30.19,10.0,South,9.2,-,N/A,,Clear,190,2013-01-19 07:55:00
2:15 AM,46.4,37.4,71,30.19,10.0,South,9.2,-,N/A,,Clear,180,2013-01-19 08:15:00
2:35 AM,46.4,37.4,71,30.19,10.0,South,9.2,-,N/A,,Clear,190,2013-01-19 08:35:00
2:55 AM,46.4,37.4,71,30.18,10.0,South,10.4,-,N/A,,Clear,180,2013-01-19 08:55:00
3:15 AM,46.4,37.4,71,30.17,10.0,South,11.5,-,N/A,,Clear,190,2013-01-19 09:15:00
3:35 AM,44.6,37.4,76,30.17,10.0,South,12.7,-,N/A,,Clear,190,2013-01-19 09:35:00
3:55 AM,44.6,37.4,76,30.16,10.0,South,10.4,-,N/A,,Clear,190,2013-01-19 09:55:00
4:15 AM,44.6,37.4,76,30.16,10.0,South,9.2,-,N/A,,Clear,190,2013-01-19 10:15:00
4:35 AM,44.6,37.4,76,30.15,10.0,SSW,9.2,-,N/A,,Clear,200,2013-01-19 10:35:00
4:55 AM,44.6,37.4,76,30.15,10.0,SSW,11.5,16.1,N/A,,Clear,200,2013-01-19 10:55:00
5:15 AM,44.6,37.4,76,30.14,10.0,South,12.7,-,N/A,,Clear,190,2013-01-19 11:15:00
5:35 AM,44.6,37.4,76,30.14,10.0,South,11.5,-,N/A,,Clear,190,2013-01-19 11:35:00
5:55 AM,44.6,37.4,76,30.14,10.0,SSW,11.5,-,N/A,,Clear,200,2013-01-19 11:55:00
7:15 AM,44.6,35.6,71,30.15,10.0,South,10.4,-,N/A,,Clear,190,2013-01-19 13:15:00
7:55 AM,44.6,35.6,71,30.16,10.0,South,10.4,-,N/A,,Clear,190,2013-01-19 13:55:00
8:15 AM,44.6,35.6,71,30.16,10.0,SSW,10.4,-,N/A,,Clear,200,2013-01-19 14:15:00
8:35 AM,44.6,37.4,76,30.16,10.0,SSW,12.7,-,N/A,,Clear,200,2013-01-19 14:35:00
9:55 AM,51.8,39.2,62,30.19,10.0,SW,13.8,19.6,N/A,,Clear,220,2013-01-19 15:55:00
10:15 AM,53.6,39.2,58,30.19,10.0,SSW,11.5,17.3,N/A,,Clear,210,2013-01-19 16:15:00
10:35 AM,55.4,41.0,58,30.19,10.0,SW,13.8,-,N/A,,Clear,220,2013-01-19 16:35:00
11:15 AM,59.0,39.2,48,30.17,10.0,SW,15.0,18.4,N/A,,Clear,220,2013-01-19 17:15:00
11:35 AM,59.0,41.0,51,30.17,10.0,SW,15.0,-,N/A,,Clear,230,2013-01-19 17:35:00
11:55 AM,60.8,41.0,48,30.17,10.0,SW,13.8,-,N/A,,Clear,230,2013-01-19 17:55:00
12:15 PM,60.8,41.0,48,30.15,10.0,SW,11.5,-,N/A,,Clear,230,2013-01-19 18:15:00
12:35 PM,60.8,41.0,48,30.13,10.0,SW,11.5,-,N/A,,Clear,220,2013-01-19 18:35:00
12:55 PM,62.6,41.0,45,30.13,10.0,SSW,11.5,-,N/A,,Clear,210,2013-01-19 18:55:00
1:15 PM,62.6,41.0,45,30.12,10.0,SSW,11.5,-,N/A,,Clear,210,2013-01-19 19:15:00
1:35 PM,64.4,41.0,42,30.12,10.0,SSW,6.9,-,N/A,,Clear,210,2013-01-19 19:35:00
1:55 PM,64.4,41.0,42,30.12,10.0,SSW,5.8,9.2,N/A,,Clear,210,2013-01-19 19:55:00
2:15 PM,64.4,41.0,42,30.12,10.0,West,5.8,-,N/A,,Clear,270,2013-01-19 20:15:00
2:35 PM,66.2,41.0,40,30.11,10.0,SSW,9.2,-,N/A,,Clear,200,2013-01-19 20:35:00
2:55 PM,66.2,41.0,40,30.11,10.0,SW,8.1,-,N/A,,Clear,220,2013-01-19 20:55:00
3:15 PM,68.0,41.0,37,30.12,10.0,SW,8.1,-,N/A,,Clear,220,2013-01-19 21:15:00
3:35 PM,68.0,41.0,37,30.11,10.0,SSW,10.4,-,N/A,,Clear,210,2013-01-19 21:35:00
3:55 PM,66.2,41.0,40,30.11,10.0,SW,6.9,-,N/A,,Clear,220,2013-01-19 21:55:00
4:15 PM,66.2,41.0,40,30.12,10.0,SW,5.8,-,N/A,,Clear,220,2013-01-19 22:15:00
4:35 PM,66.2,41.0,40,30.13,10.0,SW,8.1,-,N/A,,Clear,230,2013-01-19 22:35:00
4:55 PM,64.4,41.0,42,30.13,10.0,SW,6.9,-,N/A,,Clear,230,2013-01-19 22:55:00
5:15 PM,62.6,41.0,45,30.14,10.0,SW,5.8,-,N/A,,Clear,230,2013-01-19 23:15:00
5:35 PM,60.8,41.0,48,30.14,10.0,SSW,4.6,-,N/A,,Clear,210,2013-01-19 23:35:00
5:55 PM,60.8,41.0,48,30.14,10.0,SSW,4.6,-,N/A,,Clear,210,2013-01-19 23:55:00
6:15 PM,59.0,39.2,48,30.15,10.0,Calm,Calm,-,N/A,,Clear,0,2013-01-20 00:15:00
6:35 PM,57.2,39.2,51,30.16,10.0,Calm,Calm,-,N/A,,Clear,0,2013-01-20 00:35:00
6:55 PM,55.4,39.2,54,30.17,10.0,Calm,Calm,-,N/A,,Clear,0,2013-01-20 00:55:00
7:15 PM,57.2,39.2,51,30.18,10.0,Calm,Calm,-,N/A,,Clear,0,2013-01-20 01:15:00
7:35 PM,53.6,39.2,58,30.19,10.0,West,3.5,-,N/A,,Clear,280,2013-01-20 01:35:00
7:55 PM,53.6,39.2,58,30.20,10.0,Calm,Calm,-,N/A,,Clear,0,2013-01-20 01:55:00
8:15 PM,53.6,39.2,58,30.20,10.0,Calm,Calm,-,N/A,,Clear,0,2013-01-20 02:15:00
8:55 PM,53.6,39.2,58,30.20,10.0,Calm,Calm,-,N/A,,Clear,0,2013-01-20 02:55:00
9:15 PM,48.2,37.4,66,30.21,10.0,Calm,Calm,-,N/A,,Clear,0,2013-01-20 03:15:00
9:35 PM,48.2,39.2,71,30.22,10.0,Calm,Calm,-,N/A,,Clear,0,2013-01-20 03:35:00
9:55 PM,48.2,37.4,66,30.22,10.0,Calm,Calm,-,N/A,,Clear,0,2013-01-20 03:55:00
10:15 PM,51.8,41.0,67,-9999,10.0,Calm,Calm,-,N/A,,Clear,0,2013-01-20 04:15:00
10:35 PM,46.4,37.4,71,30.22,10.0,Calm,Calm,-,N/A,,Clear,0,2013-01-20 04:35:00
10:55 PM,44.6,37.4,76,30.23,10.0,Calm,Calm,-,N/A,,Clear,0,2013-01-20 04:55:00
11:15 PM,44.6,37.4,76,30.23,10.0,Calm,Calm,-,N/A,,Clear,0,2013-01-20 05:15:00
11:35 PM,44.6,37.4,76,30.23,10.0,Calm,Calm,-,N/A,,Clear,0,2013-01-20 05:35:00
11:55 PM,42.8,37.4,81,30.23,10.0,Calm,Calm,-,N/A,,Clear,0,2013-01-20 05:55:00